Regional Weather Roundup
Issued by NWS

Home | Current Version | Previous Version | Graphics & Text | Print | Product List | Glossary On
Versions: 1 2 3 4 5 6 7 8 9 10 11 12 13 14 15 16 17 18 19 20 21 22 23 24 25 26 27 28 29 30 31 32 33 34 35 36 37 38 39 40 41 42 43 44 45 46 47 48 49 50
224
ASUS45 KBOU 251710
RWRCO

WEATHER ROUNDUP FOR COLORADO
NATIONAL WEATHER SERVICE DENVER/BOULDER CO
1100 AM MDT SUN SEP 25 2016

NOTE: "FAIR" INDICATES FEW OR NO CLOUDS BELOW 12000 FEET WITH NO
SIGNIFICANT WEATHER AND/OR OBSTRUCTIONS TO VISIBILITY.

COZ001>005-013-030-031-251800-
...NORTHWEST COLORADO...

CITY           SKY/WX    TMP DP  RH WIND       PRES   REMARKS
CRAIG          FAIR      48  42  80 CALM      30.55S
HAYDEN         FAIR      48  36  61 SE5       30.55S
MEEKER         FAIR      50  37  61 CALM      30.53S
MOUNT WERNER   NOT AVBL
STEAMBOAT SPGS FAIR      46  38  75 CALM      30.54F
WALDEN           N/A     45  30  57 W3        30.56F
$$

COZ006>008-011-251800-
...WEST CENTRAL VALLEYS...

CITY           SKY/WX    TMP DP  RH WIND       PRES   REMARKS
GRAND JUNCTION FAIR      58  41  53 SE5       30.47S
MONTROSE       FAIR      53  38  56 CALM      30.51S
EAGLE          MOSUNNY   52  36  54 CALM      30.55F
RIFLE          FAIR      53  42  66 CALM      30.51S
DELTA          NOT AVBL
NUCLA          FAIR      55  36  47 NW3       30.50R
$$

COZ017>023-064>068-251800-
...SOUTHWEST COLORADO...

CITY           SKY/WX    TMP DP  RH WIND       PRES   REMARKS
DURANGO        FAIR      61  31  32 CALM      30.42S
CORTEZ         FAIR      58  36  43 CALM      30.41S
PAGOSA SPRINGS FAIR      58  26  28 CALM      30.46S
TELLURIDE      FAIR      48  30  49 W7        30.55S
WOLF CREEK PAS FAIR      37  27  65 CALM      30.67S
$$

COZ009-010-012-014-032>034-037-058>063-251800-
...CENTRAL COLORADO...

CITY           SKY/WX    TMP DP  RH WIND       PRES   REMARKS
ASPEN          FAIR      50  32  50 N6        30.53F
BUENA VISTA    FAIR      52  25  35 SE3       30.53S
COPPER MTN     FAIR      37  30  75 CALM      30.66S
BERTHOUD PASS  FAIR      25  12  58 N17G23    30.67R WCI  11
COTTONWOOD PAS FAIR      50  27  40 CALM      30.59S
GUNNISON       FAIR      48  32  53 VRB3      30.54F
KREMMLING      FAIR      52  28  40 N3        30.57S
LEADVILLE      FAIR      43  21  41 CALM      30.57F
MONARCH PASS   FAIR      36  27  69 SW5       30.76R
SALIDA         FAIR      53  28  38 CALM      30.59F
SUNLIGHT       FAIR      36  36 100 CALM      30.67R
WILKERSON PASS FAIR      39  27  60 SW6       30.66S
$$

COZ069>075-251800-
...SAN LUIS VALLEY/SANGRE DE CRISTO MOUNTAINS...

CITY           SKY/WX    TMP DP  RH WIND       PRES   REMARKS
ALAMOSA        FAIR      54  30  40 VRB6      30.50F
LA VETA PASS   FAIR      45  30  57 MISG      30.61R
SAGUACHE       NOT AVBL
$$

COZ035-036-038>040-251800-
...NORTHERN COLORADO FRONT RANGE...

CITY           SKY/WX    TMP DP  RH WIND       PRES   REMARKS
DENVER INTL AP FAIR      59  29  31 NE14      30.48S
DMNS CITY PARK NOT AVBL
AURORA         MOSUNNY   58  31  35 N14       30.49F
FRONT RANGE AP MOSUNNY   61  30  31 N14G24    30.49S
ERIE MUNI ARPT FAIR      60  31  34 SE7       30.47F
BOULDER MUN AP FAIR      61  32  33 SE6       30.47S
CENTENNIAL     FAIR      56  30  37 VRB5      30.49F
BROOMFIELD     MOSUNNY   59  30  33 E9G16     30.49S
FORT COLLINS   FAIR      57  34  41 S6        30.47F
LONGMONT       FAIR      63  34  34 SE3       30.49S
$$

COZ041-046-047-076>085-087-088-251800-
...PIKES PEAK/PALMER DIVIDE AND SOUTHERN FOOTHILLS...

CITY           SKY/WX    TMP DP  RH WIND       PRES   REMARKS
COLO. SPRINGS  FAIR      57  29  34 VRB3      30.51S
A. F. ACADEMY  FAIR      55  29  36 VRB7      30.50S
SCHRIEVER AFB  NOT AVBL
ELLICOTT       NOT AVBL
FALCON         FAIR      55  29  37 N9        30.53S
FORT CARSON    FAIR      57  29  34 N2        30.48F
LIMON          FAIR      59  31  34 N20       30.48R
MONUMENT HILL  FAIR      50  30  46 NE5G17    30.54S
TRINIDAD       FAIR      59  30  33 NE12      30.49S
$$

COZ042>045-048>051-090-091-251800-
...NORTHEAST COLORADO...

CITY           SKY/WX    TMP DP  RH WIND       PRES   REMARKS
GREELEY ARPT   FAIR      61  34  36 W6        30.47F
AKRON          FAIR      60  34  37 N20G29    30.44F
BURLINGTON     FAIR      64  34  32 N17G24    30.41S
WRAY           FAIR      64  32  29 N21G29    30.40S
STERLING       FAIR      63  36  36 NW20G25   30.42F
HOLYOKE        FAIR      64  36  34 N23G33    30.40S
FORT MORGAN    FAIR      64  28  25 N14G22    30.46F
$$

COZ086-089-092>099-251800-
...SOUTHEAST COLORADO...

CITY           SKY/WX    TMP DP  RH WIND       PRES   REMARKS
PUEBLO         FAIR      62  32  32 CALM      30.47S
LA JUNTA       FAIR      65  34  31 NE14      30.44F
LAMAR          FAIR      67  35  30 N14G22    30.40S
SPRINGFIELD    NOT AVBL
$$




USA.gov is the U.S. government's official web portal to all federal, state and local government web resources and services.